Retour au catalogue

LUCH (OLYMP) 2

ActifCommunicationsGEO
NORAD 55841·PAYLOAD·🇷🇺 Russia

Lancé Mar 12, 2023 depuis Baikonur Cosmodrome

Loading…

TLE

FraisSource: Space-Track

Époque: Sep 14, 2026, 17:31 UTC

1 55841U 23031A   26257.72994740  .00000025  00000-0  00000+0 0  9992
2 55841   0.0160 125.4381 0000252 210.2841 342.7743  1.00273770 12834

Suivez LUCH (OLYMP) 2 en temps réel avec AllMySat

Download on the App Store